Flag for Canada Weather past 2 weeks in Riverview, New Brunswick, Canada

27 °F

Passing clouds.

Feels Like: 19 °F
Forecast: 21 / 31 °F
Wind: 7 mph from West

Location: Moncton

Current Time: Nov 29, 2015 at 3:43:20 AM

Latest Report: Nov 29, 2015 at 3:00 AM

Visibility: 15 mi

Pressure: 30.08 "Hg

Humidity: 80%

Dew point: 21 °F

Location of RiverviewLocation

Historic Weather in Riverview — Graph


Riverview temperature yesterday

Maximum temperature yesterday: 52 °F (at 12:00 AM)
Minimum temperature yesterday: 30 °F (at 7:00 PM)
Average temperature yesterday: 36 °F

Past Weeks' High & Low Weather Summary

High57 °F (Nov 27, 12:00 PM)100% (Nov 14, 7:00 AM)30.94 "Hg (Nov 14, 7:00 AM)
Low16 °F (Nov 25, 5:00 AM)55% (Nov 25, 3:00 PM)29.34 "Hg (Nov 14, 4:00 AM)
Average36 °F82%30.18 "Hg
* Reported Nov 14 3:00 AM — Nov 29 2:00 AM, Riverview, Weather by CustomWeather, © 2015

Note: Actual official high and low records may vary slightly from our data, if they occured in-between our weather recording intervals... More about our weather records


Riverview weather history for previous 24 hours

Time TempWeatherWind HumidityBarometerVisibility
2:00 AM
Sun, Nov 29
27 °FPassing clouds.6 mph80%30.10 "Hg15 mi
1:00 AM27 °FPassing clouds.5 mph80%30.11 "Hg15 mi
12:00 AM30 °FOvercast.5 mph69%30.11 "Hg15 mi
11:00 PM
Sat, Nov 28
30 °FOvercast.6 mph69%30.13 "Hg15 mi
10:00 PM30 °FOvercast.2 mph80%30.14 "Hg15 mi
9:00 PM30 °FOvercast.7 mph75%30.15 "Hg15 mi
8:00 PM30 °FLow clouds.7 mph69%30.16 "Hg15 mi
7:00 PM30 °FLow clouds.2 mph75%30.14 "Hg15 mi
6:00 PM32 °FLow clouds.6 mph69%30.16 "Hg15 mi
5:00 PM32 °FPassing clouds.7 mph69%30.16 "Hg15 mi
4:00 PM32 °FPartly sunny.10 mph69%30.14 "Hg15 mi
3:00 PM34 °FOvercast.12 mph70%30.15 "Hg15 mi
2:00 PM34 °FPartly sunny.12 mph75%30.15 "Hg15 mi
1:00 PM34 °FMore clouds than sun.14 mph75%30.17 "Hg15 mi
12:00 PM34 °FPartly sunny.12 mph81%30.19 "Hg15 mi
11:00 AM36 °FPartly sunny.13 mph81%30.21 "Hg15 mi
10:00 AM34 °FBroken clouds.14 mph87%30.21 "Hg15 mi
9:00 AM34 °FMostly cloudy.13 mph87%30.20 "Hg15 mi
8:00 AM34 °FFog.13 mph87%30.19 "Hg2 mi
7:00 AM34 °FLight snow. Mostly cloudy.14 mph93%30.16 "Hg3 mi
6:00 AM34 °FLight rain. Mostly cloudy.13 mph93%30.15 "Hg3 mi
5:00 AM36 °FLight rain. Mostly cloudy.15 mph93%30.12 "Hg10 mi
4:00 AM37 °FLight rain. Low clouds.16 mph93%30.09 "Hg7 mi
3:00 AM41 °FLight rain. Fog.18 mph93%30.06 "Hg6 mi
Weather by CustomWeather, © 2015

See weather overviewHow to use our weather pages